Location: Sungai Igah
(2.7333°N, 114.2500°E)
Time: 15:37:07
(UTC+00:00)

ATLAS 2AS CENTAUR R/B - Pass Details

Date: 27 October 2021
Orbit: 958 x 1254 km, 63.7° (Epoch: 28 November)

Event Time Altitude Azimuth Distance (km) Brightness Sun altitude
Rises 13:31:58 0° 207° (SSW) 4,052 6.1 -50.4°
Reaches altitude 10° 13:34:39 10° 209° (SSW) 3,123 5.4 -51.0°
Enters shadow 13:35:02 12° 210° (SSW) 2,992 5.3 -51.1°
